Location: *
(67.0000°N, 59.0000°W)
Time: 10:36:01
(UTC+00:00)

Daily predictions for brighter satellites

Satellite Brightness Start Highest point End
(mag) Time Altitude Azimuth Time Altitude Azimuth Time Altitude Azimuth
Cosmos 1707 4.1 12:02:59 12° WNW 12:03:51 14° W 12:05:30 10° WSW
Cosmos 1842 4.5 12:03:28 13° NW 12:05:10 18° W 12:07:29 10° SW
Cosmos 405 Rocket 2.9 12:02:13 10° WSW 12:05:17 34° NW 12:08:21 10° NNE
Spot 4 Rocket 4.3 12:01:21 10° NNE 12:06:31 73° ESE 12:11:39 10° SSW
Meteor 2-3 Rocket 4.3 12:02:04 10° WSW 12:07:17 35° NW 12:12:27 10° NNE
H-2A R/B 4.0 12:06:20 10° NNE 12:08:19 13° N 12:10:18 10° NW
USA 81 4.0 12:03:47 10° SSW 12:09:04 74° WNW 12:14:22 10° NNE
Cosmos 1842 Rocket 4.2 12:05:28 10° NNW 12:09:27 37° W 12:13:25 10° SSW
Cosmos 1484 Rocket 3.6 12:07:33 10° N 12:10:20 23° NW 12:13:06 10° W
Cosmos 841 Rocket 3.7 12:05:18 10° WSW 12:10:27 52° NNW 12:15:38 10° NE
Cosmos 1437 Rocket 4.5 12:09:31 11° WNW 12:10:33 12° W 12:12:00 10° WSW
CZ-2D R/B 3.6 12:07:29 10° NE 12:10:57 18° N 12:14:24 10° NW
Cosmos 1076 Rocket 3.5 12:06:59 10° SSW 12:11:13 88° WNW 12:15:31 10° NNE
Cosmos 1238 Rocket 4.0 12:10:53 12° NW 12:12:07 15° W 12:13:49 10° WSW
Cosmos 1603 3.8 12:06:35 10° WNW 12:12:16 71° NNE 12:17:55 10° ESE
ACS3 Solar Sail 3.1 12:11:57 10° NE 12:16:03 19° N 12:20:13 10° NW
IRS-1D 4.4 12:12:44 10° NNE 12:16:51 27° NW 12:20:59 10° W
USA 186 4.4 12:16:13 10° ENE 12:16:54 11° E 12:17:34 10° ESE
COSMOS 2428 4.1 12:13:54 10° WNW 12:18:13 22° WSW 12:22:31 10° SSW
COSMOS 2406 3.2 12:13:46 10° WSW 12:19:28 72° NNW 12:25:11 10° ENE
Cosmos 1833 Rocket 2.9 12:15:42 10° WNW 12:21:19 59° N 12:26:55 10° E
Okean 1-7 Rocket 3.8 12:17:08 10° SW 12:21:33 53° WNW 12:25:56 10° NNE
Cosmos 1515 Rocket 4.4 12:17:29 10° NNW 12:21:43 46° ENE 12:25:57 10° SE
USA 129 3.7 12:19:11 10° NNE 12:21:55 34° E 12:23:53 10° SSE
Cosmos 1624 Rocket 4.1 12:16:59 10° NW 12:22:17 83° NE 12:27:36 10° SE
Cosmos 2181 Rocket 4.3 12:16:53 10° NNW 12:23:01 67° ENE 12:29:08 10° SSE
Cosmos 158 Rocket 4.0 12:18:10 10° SW 12:23:29 80° NW 12:28:40 10° NE
Cosmos 909 Rocket 4.3 12:18:04 10° W 12:24:49 78° SSW 12:31:06 10° ESE
ERS-1 4.5 12:20:24 10° NNE 12:25:17 59° WNW 12:30:08 10° SW
In-Cosmos 22 4.3 12:20:25 10° NNW 12:25:44 60° WSW 12:31:11 10° S
Meteor 1-31 Rocket 3.7 12:24:26 10° NNE 12:27:55 47° ESE 12:31:24 10° S
AQUARIUS 4.4 12:24:12 10° NNE 12:28:28 47° NW 12:32:43 10° SW
SJ-6B 3.1 12:24:52 10° NNE 12:28:37 67° ESE 12:32:20 10° S
SPOT 5 4.3 12:24:34 10° NNE 12:28:44 35° E 12:32:44 10° SSE
Cosmos 2082 Rocket 2.3 12:24:35 10° W 12:30:11 62° NNW 12:35:47 10° ENE
Cosmos 1346 Rocket 4.3 12:28:01 10° WNW 12:30:16 15° NNW 12:32:32 10° N
IRS-P3 4.1 12:25:25 10° NNE 12:30:42 66° WNW 12:35:58 10° SW
SJ-7 4.2 12:27:50 10° NNE 12:31:38 67° WNW 12:35:25 10° SW
Timation 1 Rocket 4.4 12:27:50 10° W 12:33:48 67° N 12:39:48 10° ENE
SAR-Lupe-4 4.3 12:31:22 10° NNE 12:34:36 32° NW 12:37:49 10° WSW
USA 290 4.4 12:34:26 10° S 12:37:21 32° ESE 12:40:18 10° NE
DNEPR-1 R/B 4.1 12:34:04 10° W 12:38:14 58° SSW 12:42:43 10° ESE
Meteor 1-21 4.5 12:32:51 10° NNW 12:38:35 72° ENE 12:44:12 10° SSE
Cosmos 1805 2.9 12:35:31 10° SSW 12:38:55 89° WNW 12:42:18 10° NNE
Cosmos 1602 Rocket 4.2 12:34:49 10° WSW 12:38:56 36° NW 12:43:05 10° NNE
Cosmos 220 Rocket 4.4 12:35:15 10° W 12:39:09 39° NNW 12:43:06 10° NE
Cosmos 468 Rocket 4.5 12:35:11 10° W 12:40:08 41° N 12:45:02 10° ENE
Okean 2 4.3 12:37:01 10° NNW 12:40:43 38° ENE 12:44:24 10° SE
Cosmos 1452 Rocket 3.8 12:38:05 10° NW 12:43:19 62° NE 12:48:34 10° ESE
Cosmos 1975 4.5 12:42:50 10° SSE 12:46:05 30° E 12:49:20 10° NNE
ADEOS II 3.6 12:42:36 10° NE 12:46:05 18° N 12:49:35 10° NW
ARIANE 5 R/B 2.9 12:42:46 10° NNE 12:47:42 45° NW 12:52:39 10° WSW
Cosmos 1328 Rocket 3.5 12:44:38 10° NNW 12:48:58 80° WSW 12:53:19 10° SSE
Cosmos 2266 Rocket 4.3 12:43:43 10° SW 12:49:49 46° NW 12:55:51 10° NNE
Resurs 1-4 Rocket 3.6 12:46:45 10° NE 12:50:27 20° N 12:54:10 10° NNW
Resurs 1-3 3.7 12:46:16 10° NNE 12:50:31 56° WNW 12:54:45 10° SW
Cosmos 1763 Rocket 4.1 12:45:53 10° WNW 12:50:47 39° N 12:55:37 10° ENE
NOAA 6 4.0 12:45:40 10° NNE 12:50:48 82° WNW 12:55:55 10° SSW
Meteor 1-20 Rocket 4.4 12:45:54 10° SW 12:51:22 51° NW 12:56:47 10° NNE
Cosmos 2173 Rocket 4.1 18:41:39 10° SSW 18:47:46 84° WNW 18:53:56 10° NNE
IRS-1D 3.4 18:44:12 10° SE 18:49:08 73° ENE 18:54:04 10° NNW
CZ-2D R/B 4.2 18:45:09 10° SW 18:49:21 24° W 18:53:33 10° NNW
Cosmos 2100 Rocket 4.1 18:43:28 10° SSW 18:49:40 82° WNW 18:55:55 10° NNE
Cosmos 1953 4.2 18:49:36 10° W 18:51:55 16° NW 18:54:15 10° N
Cosmos 1536 Rocket 3.5 18:48:46 10° NNW 18:53:11 84° ENE 18:57:33 10° SSE
Cosmos 1300 Rocket 3.5 18:49:18 10° SSW 18:53:37 80° ESE 18:57:56 10° NNE
CENTAUR R/B 4.4 18:51:31 10° SE 18:54:38 14° ESE 18:58:01 10° ENE
Cosmos 1939 Rocket 2.7 18:52:22 10° SSE 18:56:11 87° ENE 18:59:59 10° NNW
Cosmos 1346 Rocket 2.6 18:52:35 10° NNW 18:56:20 86° ENE 19:00:02 10° SSE
USA 290 2.5 18:53:14 10° NW 18:56:24 45° NNE 18:59:34 10° ESE
Cosmos 773 Rocket 4.0 18:51:15 10° NW 18:56:26 64° NE 19:01:38 10° ESE
Cosmos 921 Rocket 3.5 18:52:42 10° WSW 18:57:05 52° NW 19:01:28 10° NE
Cosmos 1269 Rocket 4.1 18:51:47 10° SW 18:57:06 83° NW 19:02:27 10° NE
SJ-11-01 4.3 18:54:39 10° SSE 18:59:23 84° ENE 19:04:08 10° NNW
Cosmos 2026 Rocket 4.1 18:55:00 10° NNW 19:01:05 57° ENE 19:07:16 10° SE
Cosmos 1844 Rocket 2.9 18:57:14 10° W 19:02:48 60° N 19:08:26 10° ENE
Cosmos 1725 Rocket 4.1 18:57:33 10° SSW 19:03:55 89° ESE 19:10:17 10° NNE
ASTEX 1 3.4 18:59:28 10° N 19:04:24 76° E 19:09:20 10° S
ACS3 Solar Sail 3.2 18:59:07 10° SSW 19:04:33 37° W 19:10:08 10° NNW
CZ-2C R/B 3.0 18:59:24 10° NNE 19:04:49 64° WNW 19:10:04 10° SW
IGS 5A 4.0 19:01:29 10° ESE 19:05:04 34° NE 19:08:42 10° NNW
Meteor 2-3 Rocket 3.7 19:00:46 10° NNW 19:06:27 78° ENE 19:12:04 10° SSE
Cosmos 2263 Rocket 2.3 19:03:43 10° WNW 19:09:21 62° NNE 19:14:59 10° E
ATLAS CENTAUR R/B 2.5 19:06:32 10° W 19:09:39 37° SSW 19:12:43 10° SE
Iridium 4 Rocket 3.0 19:05:47 10° S 19:09:56 84° W 19:14:11 10° N
Cosmos 2208 Rocket 3.9 19:05:41 10° NW 19:10:53 72° NE 19:16:04 10° SE
ARIANE 5 R/B 4.3 19:09:17 10° NNE 19:12:35 22° NW 19:15:54 10° W
Cosmos 1680 Rocket 4.1 19:10:15 10° WNW 19:15:09 39° N 19:20:04 10° ENE
USA 281 3.6 19:09:08 10° ENE 19:15:25 49° N 19:21:41 10° WNW
SMAP 3.6 19:12:03 10° ESE 19:16:21 38° NE 19:20:40 10° NNW
Cosmos 1733 Rocket 4.3 19:12:29 10° WSW 19:16:25 32° NW 19:20:22 10° NNE
Cosmos 1812 2.2 19:13:42 10° S 19:16:27 51° ESE 19:19:14 10° NNE
Cosmos 1602 Rocket 4.4 19:12:34 10° NNW 19:16:28 29° NE 19:20:19 10° ESE
Cosmos 2058 3.7 19:13:36 10° NNW 19:17:30 52° W 19:21:23 10° S
CZ-2D R/B 4.1 19:16:11 10° E 19:18:35 20° NE 19:21:00 10° N
ARIANE 5 R/B 3.0 19:14:30 10° ESE 19:19:15 40° NE 19:24:03 10° NNW
Cosmos 1743 3.5 19:16:45 10° N 19:19:25 23° NE 19:22:06 10° ESE
Cosmos 2227 Rocket 2.2 19:14:53 10° WNW 19:20:34 71° NNE 19:26:14 10° ESE
NOAA 12 4.2 19:15:13 10° SSE 19:20:34 89° WSW 19:25:56 10° NNW
Landsat 7 4.3 19:17:56 10° ESE 19:22:09 35° NE 19:26:23 10° NNW
Cosmos 1464 Rocket 4.3 19:16:52 10° SSE 19:22:39 45° E 19:28:27 10° NNE
ADEOS II 4.5 19:19:29 10° SW 19:23:18 20° W 19:27:08 10° NW
Cosmos 1656 Rocket 4.3 19:18:29 10° SSW 19:23:50 45° ESE 19:29:04 11° NE
Cosmos 1459 Rocket 4.4 19:17:33 10° SW 19:23:53 64° WNW 19:30:11 10° NNE
H-2A R/B 4.3 19:20:41 10° S 19:24:25 50° WSW 19:28:09 10° NNW
Cosmos 1455 Rocket 4.3 19:22:08 10° SE 19:25:37 24° E 19:29:08 10° NNE
Cosmos 1782 Rocket 3.8 19:21:29 10° SSW 19:25:52 72° WNW 19:30:13 10° NNE
Cosmos 1092 Rocket 4.0 19:19:47 10° NNW 19:25:59 66° ENE 19:32:06 10° SSE
SPOT 1/Viking Rocket 4.3 19:21:42 10° E 19:26:13 31° NE 19:30:44 10° NNW
SJ 16-02 1.4 19:22:30 10° SSW 19:26:46 64° ESE 19:30:46 12° NE
Cosmos 2151 Rocket 4.0 19:22:34 10° SSE 19:26:51 46° E 19:31:07 10° NNE
CORIOLIS 4.3 19:21:54 10° SE 19:27:03 50° NE 19:32:13 10° NNW
Cosmos 2251 Rocket 3.7 19:22:20 10° SSW 19:27:41 72° SE 19:32:50 11° NE
Cosmos 1869 2.9 19:26:17 10° SSW 19:29:48 86° ESE 19:33:21 10° NNE
Geosat 4.3 19:25:19 10° ENE 19:30:10 50° N 19:35:01 10° WNW
Nadezhda 4 Rocket 4.1 19:24:12 10° NNW 19:30:28 85° WSW 19:36:39 10° SSE
Cosmos 2016 Rocket 4.2 19:24:46 10° SSW 19:31:10 75° WNW 19:37:32 10° NNE
Cosmos 2369 Rocket 3.1 19:27:51 10° S 19:32:55 35° ESE 19:37:39 12° NE
Cosmos 968 Rocket 4.2 19:28:20 10° S 19:33:10 39° ESE 19:37:39 12° NE
Cosmos 1943 Rocket 2.2 19:29:16 10° SW 19:34:50 86° SE 19:40:00 12° NE
Okean O Rocket 3.6 19:33:49 10° NNE 19:35:37 13° N 19:37:28 10° NNW
Cosmos 1908 Rocket 4.5 19:32:49 10° SW 19:37:04 44° WNW 19:41:18 10° NNE
Cosmos 371 Rocket 3.5 19:32:50 10° SSW 19:37:37 62° SE 19:41:58 13° NE
Cosmos 1400 Rocket 2.8 19:34:44 10° S 19:38:20 53° ESE 19:41:40 12° NNE
MOZ.5/SAFIR/RUBIN 5/SL-8 3.8 19:34:10 10° NNE 19:38:52 67° ESE 19:43:31 10° S
CBERS-1 4.0 19:33:47 10° SE 19:38:53 68° ENE 19:43:59 10° NNW
Cosmos 2278 Rocket 2.2 19:34:36 10° SW 19:40:18 87° SE 19:45:29 13° NE
YAOGAN 1 3.6 19:37:16 10° E 19:40:41 24° NE 19:44:05 10° NNW
Cosmos 1538 Rocket 4.2 19:36:49 10° NW 19:41:56 51° NNE 19:47:05 10° ESE
CZ-4C R/B 3.3 19:37:12 10° W 19:42:53 56° SSW 19:50:16 10° SE
Resurs 01 Rocket 3.0 19:41:19 11° ENE 19:44:16 19° NNE 19:47:22 10° NNW
CZ-4 R/B 3.3 19:45:10 12° NNE 19:45:38 12° NNE 19:47:09 10° N
Cosmos 44 Rocket 3.6 19:42:14 10° WSW 19:47:12 69° SSE 19:52:17 10° E
Cosmos 2228 4.3 19:45:01 10° SE 19:48:16 22° E 19:50:42 14° NE
CZ-4 R/B 4.4 19:44:38 10° S 19:49:26 63° WSW 19:54:10 10° NNW
Cosmos 1484 Rocket 2.4 19:46:00 10° SSE 19:49:29 66° ENE 19:52:58 10° NNW
Meteor 1-20 Rocket 4.3 19:44:38 10° NNW 19:50:00 48° NE 19:55:17 10° SE
Cosmos 1825 Rocket 4.3 19:46:40 10° NNW 19:50:33 30° NE 19:54:25 10° ESE
Cosmos 2034 Rocket 4.3 19:45:16 10° SSE 19:51:19 49° E 19:57:25 10° NNE
Cosmos 1140 Rocket 3.8 19:47:33 10° WSW 19:52:36 57° NNW 19:56:56 14° NE
Cosmos 1758 Rocket 3.6 19:48:26 10° NNW 19:52:43 51° ENE 19:56:57 10° SE
Thor Agena Rocket 3.5 19:47:51 10° SE 19:53:01 69° ENE 19:58:08 10° NNW
CZ-2C R/B 4.4 19:50:50 10° SSW 19:55:23 32° W 20:00:00 10° NNW
IRS-1C 4.2 19:50:17 10° SE 19:55:29 57° NE 20:00:43 10° NNW
Aureole 3 Rocket 3.9 19:51:51 10° S 19:56:58 82° ESE 20:04:14 10° NNE
Cosmos 1844 3.8 19:52:21 10° WNW 19:57:59 59° N 20:03:06 12° E
Cosmos 2266 Rocket 4.1 19:52:47 10° NNW 19:58:52 49° NE 20:04:50 10° SE
Cosmos 405 Rocket 2.2 19:55:47 10° NNW 19:59:05 69° ENE 20:02:21 10° SSE
Terra 3.5 20:00:11 13° NE 20:01:40 15° NNE 20:04:21 10° NNW
MOS 1 Rocket 3.8 19:57:02 10° SE 20:01:51 46° NE 20:06:53 10° NNW
Cosmos 2082 3.7 20:00:13 10° WNW 20:05:55 66° NNE 20:11:38 10° ESE
Cosmos 2098 Rocket 4.5 20:02:46 10° SE 20:06:13 22° ENE 20:08:53 15° NE
Cosmos 1072 Rocket 4.5 20:00:25 10° S 20:06:31 73° E 20:12:42 10° NNE
Okean 1 Rocket 3.1 20:03:08 10° S 20:07:23 61° ESE 20:11:22 12° NNE
Sich 1 Rocket 3.6 20:04:27 10° S 20:08:55 64° ESE 20:13:08 11° NNE
Meteor 1-31 Rocket 4.5 20:09:33 14° NNE 20:09:33 14° NNE 20:10:57 10° N
Cosmos 2151 3.1 20:06:04 10° NNW 20:10:07 48° ENE 20:14:09 10° SE
SL-16 R/B 3.1 20:04:51 10° NNE 20:10:39 38° E 20:16:24 10° SSE
SJ-6B 4.2 20:10:46 17° NE 20:10:46 17° NE 20:13:09 10° N
Cosmos 2227 4.3 20:05:44 10° WNW 20:11:24 60° N 20:16:24 13° E
Cosmos 1733 2.1 20:12:22 34° ESE 20:12:22 34° ESE 20:13:40 10° SE
H-2A R/B 2.4 20:08:22 11° NNE 20:11:58 69° WNW 20:15:41 10° SW
Cosmos 2297 Rocket 2.7 20:07:58 10° NW 20:13:36 65° SW 20:19:13 10° SSE
Cosmos 332 Rocket 4.1 20:09:17 10° SSW 20:13:55 49° ESE 20:17:14 18° NE
Cosmos 2297 4.1 20:08:31 10° SSW 20:13:57 49° SE 20:18:01 18° ENE
Cosmos 2112 Rocket 4.4 20:09:56 10° NW 20:14:54 44° NNE 20:18:54 15° E
Okean 2 Rocket 3.0 20:10:51 10° S 20:15:13 77° ESE 20:19:23 12° NNE
SAR-Lupe-4 3.6 20:12:20 10° SE 20:15:49 53° ENE 20:19:18 10° NNW
Timation 2 Rocket 4.1 20:09:15 10° WSW 20:16:04 85° NNW 20:21:15 17° ENE
Lacrosse 4 Rocket 3.0 20:13:11 10° SSE 20:16:05 19° ESE 20:17:39 16° E
Cosmos 1626 Rocket 3.4 20:12:12 10° NNW 20:16:35 76° ENE 20:20:56 10° SSE
Spot 4 Rocket 4.4 20:12:22 10° ESE 20:17:10 42° NE 20:22:00 10° NNW
Cosmos 304 Rocket 3.8 20:13:46 10° SW 20:18:33 87° NW 20:22:09 18° NE
Cosmos 1892 Rocket 4.4 20:15:48 10° NNW 20:20:11 56° W 20:24:32 10° S
Cosmos 407 Rocket 3.8 20:17:06 10° WSW 20:22:09 59° NNW 20:25:56 18° NE
ERS-1 Rocket 4.4 20:21:32 17° NE 20:22:58 19° NNE 20:26:26 10° NNW
Meteor 1-25 Rocket 4.3 20:17:16 10° NNW 20:23:04 59° ENE 20:28:50 10° SE
SL-08 ROCKET BODY 4.3 20:17:28 10° NNW 20:23:24 76° ENE 20:29:23 10° SSE
SAR-Lupe-1 4.1 20:20:33 10° SE 20:24:06 56° ENE 20:27:41 10° NNW
Cosmos 923 Rocket 4.2 20:19:15 10° NW 20:24:23 51° NNE 20:28:57 13° E
Cosmos 1076 Rocket 4.1 20:21:01 10° NNW 20:24:58 34° NE 20:28:55 10° ESE
AQUARIUS 4.1 20:20:50 10° SE 20:25:10 58° ENE 20:29:32 10° NNW
Cosmos 1782 3.8 20:23:52 10° SE 20:26:40 21° E 20:26:43 21° E
Cosmos 1850 Rocket 4.1 20:23:00 10° SSW 20:28:04 59° ESE 20:31:38 20° NE
Cosmos 2219 3.2 20:23:35 10° WNW 20:29:20 77° NNE 20:35:06 10° ESE
Cosmos 1315 Rocket 3.3 20:27:09 10° SSE 20:30:42 36° E 20:32:26 24° NE
USA 290 3.1 20:27:38 10° NW 20:30:50 52° SW 20:34:01 10° SSE
Meteor 1-5 Rocket 4.2 20:28:39 10° NNW 20:33:51 51° NE 20:39:04 10° SE
Cosmos 1190 Rocket 4.2 20:28:40 10° SW 20:33:57 71° NW 20:37:43 19° NE
SPOT 5 4.0 20:33:32 20° NE 20:34:19 21° NNE 20:37:45 10° NNW
ERS-1 4.4 20:29:43 10° SE 20:34:43 74° ENE 20:39:41 10° NNW
Cosmos 1954 Rocket 4.1 20:30:08 10° SW 20:35:21 76° NW 20:39:01 20° NE
Cosmos 921 Rocket 4.3 20:32:05 10° WNW 20:36:01 29° NNW 20:38:22 19° NNE
IRIDIUM 106 4.4 20:30:53 10° N 20:36:03 54° ENE 20:41:11 10° SSE
Okean 1-7 Rocket 3.5 20:34:43 10° NNW 20:39:08 60° ENE 20:43:29 10° SE
IGS 5A 3.7 20:35:47 10° S 20:39:45 68° WSW 20:43:45 10° NNW
Cosmos 676 Rocket 4.0 20:35:35 10° SW 20:40:51 81° NW 20:44:28 21° NE
DMSP B5D2-2 4.0 20:35:58 12° NNE 20:40:55 87° ESE 20:46:09 10° SSW
Meteor 2-1 Rocket 4.3 20:36:21 10° SSW 20:42:15 78° ESE 20:47:45 12° NNE
CENTAUR R/B 3.5 20:37:29 10° SSW 20:43:03 35° SE 20:47:19 20° E
ATLAS CENTAUR R/B 3.9 20:41:45 10° W 20:43:48 16° SW 20:45:50 10° S
CZ-4 R/B 4.4 20:40:02 10° SE 20:43:53 51° ENE 20:47:45 10° NNW
CZ-2C R/B 4.1 20:39:57 11° NNE 20:44:23 29° NW 20:48:54 10° W
Cosmos 1544 Rocket 4.2 20:40:28 10° SSE 20:44:28 34° E 20:46:19 24° NE
Resurs 1-3 3.8 20:41:04 10° SE 20:45:10 43° NE 20:49:16 10° NNW
IRS-P3 4.0 20:40:04 10° SE 20:45:24 78° ENE 20:50:45 10° NNW
Cosmos 1844 Rocket 2.7 20:41:42 10° WNW 20:47:20 64° NNE 20:51:12 21° E
Cosmos 1812 3.9 20:46:27 10° WSW 20:48:53 25° NW 20:50:46 14° N
ACS3 Solar Sail 4.3 20:46:31 10° W 20:49:19 13° WNW 20:52:10 10° NW
CZ-2D R/B 2.6 20:46:59 10° SSE 20:50:09 83° ENE 20:53:20 10° NNW
CARTOSAT-1 4.1 20:48:48 23° E 20:50:38 34° NE 20:54:28 10° NNW
PSLV R/B 3.7 20:46:53 10° SE 20:50:44 43° NE 20:54:37 10° NNW
UNK 4.4 20:49:22 25° NE 20:51:14 34° E 20:55:26 10° SSE
Cosmos 1048 Rocket 4.5 20:47:36 10° NW 20:52:37 44° NNE 20:55:13 26° ENE
Cosmos 1743 2.3 20:50:06 10° NNW 20:53:24 81° WSW 20:56:40 10° SSE
SMAP 3.3 20:48:51 10° SSE 20:53:32 75° WSW 20:58:14 10° NNW
Cosmos 2263 Rocket 2.3 20:47:54 10° NW 20:53:36 83° SW 20:59:18 10° SE
Cosmos 1602 Rocket 3.5 20:50:17 10° NNW 20:54:46 88° ENE 20:59:10 10° SSE
CZ-2D R/B 3.5 20:51:04 10° SE 20:55:10 55° ENE 20:59:13 10° NNW
CSL-04 Rocket 4.4 20:53:09 24° ENE 20:55:28 33° NE 21:00:22 10° NNW
Cosmos 1655 Rocket 4.0 20:49:33 10° NNW 20:55:48 59° ENE 21:01:58 10° SE
Cosmos 1356 Rocket 3.4 20:53:41 10° S 20:57:40 55° ESE 20:59:39 27° NE
SJ-12 3.7 20:54:05 10° SSE 20:57:53 87° WSW 21:01:43 10° NNW
Cosmos 1680 Rocket 3.6 20:52:54 10° NW 20:58:03 56° NNE 21:01:16 23° ESE
ARIANE 5 R/B 2.6 20:52:57 10° SSE 20:58:04 80° WSW 21:03:17 10° NNW
Landsat 7 3.8 20:54:35 10° SSE 20:59:17 81° WSW 21:03:59 10° NNW
USA 281 3.4 20:54:49 20° E 20:59:20 56° NNE 21:05:43 10° NW
USA 215 4.3 20:54:39 11° ESE 21:00:35 38° S 21:06:38 10° WSW
NOAA 6 4.1 20:56:38 10° SE 21:01:35 52° NE 21:06:33 10° NNW
Iridium 51 3.6 20:58:45 10° S 21:01:56 75° E 21:03:25 30° NNE
Cosmos 1455 Rocket 3.0 20:58:28 10° SSW 21:02:49 87° ESE 21:06:06 18° NNE
Cosmos 1634 Rocket 3.9 20:57:18 10° S 21:03:26 70° E 21:09:35 10° NNE
Cosmos 494 Rocket 4.2 20:58:35 10° NW 21:03:44 52° NNE 21:06:24 27° E
Cosmos 2227 Rocket 2.7 20:59:05 10° NW 21:04:40 62° SW 21:10:14 10° SSE
Cosmos 2151 Rocket 4.4 21:00:30 10° SW 21:04:52 51° WNW 21:08:40 13° NNE
SPOT 1/Viking Rocket 3.5 20:59:51 10° SE 21:05:03 74° ENE 21:10:17 10° NNW
SJ 16-02 1.9 21:00:55 10° WSW 21:05:06 47° NNW 21:07:18 25° NNE
Cosmos 1656 Rocket 3.7 21:01:27 10° WSW 21:07:10 85° NNW 21:10:24 27° NE
Geosat 4.1 21:05:02 27° E 21:07:37 59° NNE 21:12:33 10° WNW
Cosmos 1464 Rocket 4.2 21:01:48 10° SSW 21:07:56 68° WNW 21:14:05 10° NNE
SL-19 R/B 4.2 21:03:56 10° SE 21:09:24 69° ENE 21:15:13 10° NNW
Cosmos 2251 Rocket 4.0 21:04:55 10° WSW 21:10:11 55° NNW 21:13:14 25° NE
Okean O Rocket 3.3 21:11:05 18° NNE 21:11:05 18° NNE 21:13:27 10° NNW
Cosmos 1536 4.4 21:07:35 10° N 21:09:13 19° NNE 21:09:13 19° NNE
Okean-O 4.3 21:12:54 17° NNE 21:12:54 17° NNE 21:15:12 10° NNW
SJ-6F 4.4 21:08:58 10° SSE 21:13:00 84° WSW 21:17:04 10° NNW
Cosmos 1400 Rocket 3.9 21:10:31 10° WSW 21:13:57 36° NW 21:16:15 18° N
Meteor 1-28 Rocket 2.9 21:13:58 52° ENE 21:14:22 56° ESE 21:17:41 10° S
Cosmos 968 Rocket 3.5 21:09:22 10° SW 21:14:37 82° NW 21:17:33 27° NE
YAOGAN 1 2.4 21:11:45 10° SE 21:15:58 64° ENE 21:20:14 10° NNW
Cosmos 2369 Rocket 2.2 21:10:46 10° SW 21:16:27 81° SE 21:19:24 30° ENE
Cosmos 1953 Rocket 3.5 21:12:52 10° NNW 21:17:16 62° ENE 21:21:42 10° SSE
Cosmos 371 Rocket 3.7 21:13:13 10° WSW 21:18:00 56° NNW 21:20:25 28° NE
CZ-4 R/B 3.0 21:20:14 19° N 21:20:14 19° N 21:21:53 10° N
Cosmos 1943 Rocket 2.4 21:13:25 10° W 21:18:56 61° NNW 21:21:29 31° ENE
Cosmos 2279 Rocket 3.9 21:13:04 10° S 21:19:13 67° E 21:25:26 10° NNE
Resurs 01 Rocket 1.9 21:18:44 36° E 21:19:51 44° NE 21:24:02 10° NNW
OceanSat 1 rocket 4.5 21:19:25 10° SE 21:24:07 68° ENE 21:28:49 10° NNW
Cosmos 1538 Rocket 4.1 21:19:07 10° NW 21:24:23 80° SW 21:29:41 10° SE
Cosmos 2278 Rocket 2.4 21:19:07 10° W 21:24:45 61° N 21:27:18 32° ENE
Cosmos 2228 2.8 21:20:30 10° SSW 21:24:46 81° ESE 21:27:00 28° NNE
Cosmos 614 Rocket 4.5 21:22:04 10° NW 21:26:56 42° NNE 21:28:16 35° NE
Cosmos 44 Rocket 3.6 21:23:29 10° W 21:28:29 68° SSW 21:31:02 29° ESE
Cosmos 1825 Rocket 3.5 21:24:22 10° NNW 21:28:47 86° WSW 21:33:09 10° SSE
CZ-4C R/B 4.2 21:24:57 10° WNW 21:30:35 35° SW 21:37:30 10° SSE
Cosmos 1697 Rocket 4.2 21:27:30 10° SSE 21:29:52 18° SE 21:29:52 18° SE
Lacrosse 5 rocket 3.3 21:31:04 10° SSW 21:33:03 14° SSE 21:33:14 14° SSE
Cosmos 2180 Rocket 4.4 21:28:47 10° S 21:34:50 64° E 21:40:58 10° NNE
IRAS Rocket 4.1 21:29:29 10° SSE 21:34:59 88° ENE 21:40:31 10° NNW
CZ-4B R/B 3.8 21:34:09 34° ENE 21:35:03 36° NE 21:40:12 10° NNW
Cosmos 1140 Rocket 4.3 21:30:20 10° WNW 21:35:09 39° N 21:36:50 30° NE
Cosmos 292 Rocket 3.7 21:31:52 10° SW 21:36:41 83° SE 21:38:23 41° NE
Cosmos 2034 Rocket 4.4 21:30:24 10° SSW 21:36:43 66° WNW 21:43:07 10° NNE
Cosmos 1741 Rocket 4.1 21:32:29 10° SW 21:37:49 78° NW 21:40:18 33° NE
Terra 3.1 21:38:48 24° NNE 21:38:48 24° NNE 21:41:48 10° NNW
MOS 1 Rocket 3.9 21:34:48 10° S 21:39:48 65° WSW 21:45:04 10° NNW
IRIDIUM 104 4.5 21:35:04 10° N 21:40:19 75° W 21:45:32 10° S
NOSS 3-2 (A) 4.2 21:37:24 10° SSW 21:42:14 32° SE 21:43:15 30° ESE
Cosmos 1844 3.6 21:36:55 10° WNW 21:42:37 79° NNE 21:44:57 37° ESE
Cosmos 2098 Rocket 3.1 21:38:39 10° S 21:43:04 71° ESE 21:45:54 26° NNE
SJ-6B 4.0 21:45:07 27° N 21:45:07 27° N 21:47:03 10° NNW
Cosmos 2266 Rocket 4.3 21:38:18 10° NNW 21:44:29 66° W 21:50:32 10° S
Okean 1 Rocket 4.3 21:41:23 10° SW 21:45:26 38° NW 21:48:24 17° N
H-2A R/B 4.3 21:43:32 15° N 21:45:37 22° NW 21:48:35 10° W
Cosmos 2151 4.1 21:43:00 10° NNW 21:46:58 44° W 21:50:56 10° SSW
ADEOS 4.0 21:48:17 39° NE 21:48:25 39° NE 21:53:15 10° NNW
SJ-7 4.2 21:46:01 10° SSE 21:49:46 81° WSW 21:53:34 10° NNW
Cosmos 2082 3.9 21:44:31 10° NW 21:50:12 72° SW 21:54:27 19° SE
STPSAT 2 (USA 217) 4.5 21:46:27 10° NW 21:50:56 68° NNE 21:51:30 60° ENE
Meteor 2-10 3.9 21:46:00 10° NNW 21:51:15 86° ENE 21:56:41 10° SSE
Alouette 2 Rocket 4.1 21:46:52 10° NNW 21:51:21 61° ENE 21:54:45 27° SE
Nadezhda 2 Rocket 4.3 21:46:21 10° NNW 21:52:33 68° ENE 21:58:39 10° SSE
Lacrosse 4 Rocket 1.5 21:49:21 10° SW 21:53:09 52° SSE 21:53:09 52° SSE
Cosmos 2263 4.2 21:47:52 10° SW 21:53:42 89° NNW 21:55:51 41° NE
Cosmos 332 Rocket 4.0 21:49:21 10° WSW 21:54:08 65° NW 21:55:43 40° NNE
SL-16 R/B 2.5 21:49:51 17° NNE 21:54:54 86° WNW 22:01:08 10° SSW
Cosmos 2227 4.1 21:50:15 10° WNW 21:56:00 89° NNE 21:58:20 38° SE
Spot 4 Rocket 4.2 21:50:59 10° SSE 21:56:06 74° WSW 22:01:16 10° NNW
Cosmos 2297 Rocket 4.4 21:52:17 10° NW 21:56:52 26° WSW 22:01:26 10° SSW
Cosmos 2142 Rocket 4.4 21:50:40 10° S 21:57:05 82° ESE 22:03:28 10° NNE
Cosmos 2112 Rocket 3.8 21:52:20 10° NW 21:57:34 79° NE 21:59:11 45° ESE
Cosmos 2297 3.7 21:52:16 10° WSW 21:57:57 81° NNW 21:59:55 43° NE
Feng Yun 1-1 Rocket 4.4 21:59:28 46° ENE 21:59:50 46° NE 22:05:00 10° NNW
ERS-1 Rocket 3.8 22:01:24 33° NNE 22:01:24 33° NNE 22:05:07 10° NNW
Cosmos 1782 2.6 21:57:31 10° SSW 22:00:52 75° SW 22:00:52 75° SW
Ariane Rocket 4.4 22:01:57 22° NNE 22:01:57 22° NNE 22:05:11 10° NNW
Cosmos 1656 3.9 21:56:29 10° SSW 22:01:54 48° SE 22:02:27 47° ESE
EO 1 Delta rocket 4.3 22:00:55 44° ESE 22:02:17 56° ENE 22:08:30 10° NNW
Cosmos 1076 Rocket 3.7 21:58:21 10° NNW 22:02:38 70° WSW 22:06:56 10° S
Cosmos 1777 Rocket 4.5 21:58:53 10° S 22:03:18 42° SE 22:03:18 42° SE
Timation 2 Rocket 4.1 21:57:18 10° W 22:04:01 69° N 22:06:12 43° ENE
Cosmos 407 Rocket 4.3 22:00:04 10° WNW 22:04:54 39° N 22:06:02 34° NNE
Meteor 2-9 Rocket 4.2 22:00:20 10° NNW 22:05:43 52° NE 22:05:57 52° ENE
Cosmos 1315 Rocket 3.4 22:02:31 10° SW 22:06:18 53° WNW 22:07:15 41° NNW
Cosmos 923 Rocket 4.0 22:01:33 10° NW 22:06:48 79° SW 22:09:14 33° SSE
Cosmos 1850 Rocket 4.3 22:05:05 10° WSW 22:10:12 60° NNW 22:11:50 41° NNE
SPOT 5 3.4 22:12:36 41° NNE 22:12:36 41° NNE 22:15:58 10° NNW
Cosmos 1606 Rocket 4.5 22:08:28 10° S 22:11:11 35° SSE 22:11:11 35° SSE
Cosmos 2219 3.9 22:07:50 10° NW 22:13:26 55° SW 22:18:07 15° SSE
Cosmos 921 Rocket 4.4 22:11:24 10° NW 22:14:57 27° N 22:14:57 27° N
Cosmos 1709 Rocket 4.0 22:10:01 10° NNW 22:16:04 54° ENE 22:16:42 52° E
Meteor 2-11 Rocket 4.3 22:10:24 10° NNW 22:16:37 75° ENE 22:20:07 28° SSE
Cosmos 2084 4.4 22:13:33 10° SW 22:16:48 36° S 22:16:48 36° S
Cosmos 1486 Rocket 4.0 22:14:40 10° SSW 22:19:36 58° SE 22:19:36 58° SE
Cosmos 1745 Rocket 3.9 22:14:11 10° NNW 22:20:25 65° ENE 22:22:03 48° ESE
Resurs 1-3 4.2 22:16:56 10° S 22:21:11 56° WSW 22:25:27 10° NNW
Meteor 1-14 Rocket 4.2 22:15:57 10° NNW 22:21:53 70° ENE 22:23:08 54° ESE
Cosmos 1544 Rocket 3.9 22:17:35 10° SSW 22:21:59 66° WNW 22:23:19 43° N
USA 81 4.1 22:19:53 10° NNW 22:25:11 79° W 22:30:28 10° S
Cosmos 1244 Rocket 4.5 22:19:17 10° NNW 22:25:41 85° WSW 22:31:57 10° SSE
PSLV R/B 4.2 22:22:00 10° S 22:25:57 51° WSW 22:29:57 10° NNW
CARTOSAT-1 3.6 22:25:30 60° SSW 22:26:08 73° WSW 22:30:22 10° NNW
UNK 3.9 22:27:27 50° N 22:28:34 72° WNW 22:33:08 10° SW
Cosmos 1844 Rocket 2.7 22:25:48 10° NW 22:31:29 77° SW 22:32:51 53° SSE
MOS 1 4.4 22:31:54 54° NE 22:31:54 54° NE 22:37:13 10° NNW
CENTAUR R/B 2.9 22:26:16 10° SW 22:32:40 60° SSE 22:34:24 49° ESE
Meteor 1-11 Rocket 3.8 22:27:22 10° NNW 22:33:20 61° ENE 22:33:28 61° ENE
Cosmos 1048 Rocket 3.9 22:29:55 10° NW 22:35:13 77° NE 22:35:22 77° ENE
CSL-04 Rocket 3.6 22:34:45 68° ESE 22:35:16 74° ENE 22:40:50 10° NNW
Cosmos 2263 Rocket 3.6 22:31:57 10° NW 22:37:04 36° WSW 22:42:12 10° S
PAYLOAD B 4.1 22:38:05 65° NE 22:38:05 65° NE 22:43:25 10° NNW
Cosmos 1680 Rocket 3.7 22:35:07 10° NW 22:40:19 67° SW 22:41:31 50° S
USA 281 3.1 22:41:41 50° SE 22:43:38 90° NNE 22:50:17 10° NW
SJ 16-02 2.7 22:40:16 10° WNW 22:43:49 29° NNW 22:43:49 29° NNW
USA 215 4.4 22:42:01 24° SSE 22:44:50 33° SSW 22:50:40 10° W
Geosat 3.9 22:45:06 76° S 22:45:23 79° SW 22:50:26 10° NW
Cosmos 494 Rocket 4.0 22:40:31 10° NW 22:45:48 76° SW 22:46:20 68° S
Okean O Rocket 3.5 22:48:20 20° N 22:48:20 20° N 22:49:55 10° NNW
GEOS 3 Rocket 4.1 22:48:07 47° S 22:48:07 47° S 22:52:41 10° SW
Meteor 2-20 4.3 22:41:38 10° S 22:47:47 73° ESE 22:48:32 65° NE
Cosmos 2227 Rocket 4.3 22:43:25 10° WNW 22:47:53 24° WSW 22:52:19 10° SSW
Cosmos 1656 Rocket 3.9 22:45:33 10° W 22:51:12 59° N 22:51:43 56° NNE
YAOGAN 1 4.1 22:48:12 10° SSW 22:52:08 35° W 22:56:06 10° NNW
CZ-4 R/B 3.6 22:55:18 17° NNW 22:55:18 17° NNW 22:56:18 10° NNW
Cosmos 1386 Rocket 4.4 22:46:31 10° NNW 22:52:36 85° WSW 22:54:56 40° S
Cosmos 2251 Rocket 4.3 22:48:15 10° WNW 22:53:20 40° N 22:53:37 40° N
Cosmos 2360 4.4 22:50:25 10° SW 22:55:14 57° S 22:55:14 57° S
Resurs 01 Rocket 2.1 22:56:08 56° WSW 22:56:13 56° WSW 23:00:34 10° NNW
Cosmos 968 Rocket 4.2 22:51:51 10° W 22:56:54 45° NNW 22:57:26 43° N
Cosmos 371 Rocket 4.3 22:54:30 10° WNW 22:58:52 37° NNW 22:58:52 37° NNW
Cosmos 2369 Rocket 2.4 22:55:07 10° W 23:00:47 63° NNW 23:01:10 61° N
Cosmos 1943 Rocket 2.3 22:57:47 10° WNW 23:02:58 61° N 23:02:58 61° N
CSL-04 Debris 4.1 23:06:30 80° NW 23:06:30 80° NW 23:11:41 10° NNW
Lacrosse 5 rocket 4.0 23:06:33 10° SW 23:06:50 11° SW 23:06:50 11° SW
Cosmos 614 Rocket 4.4 23:04:00 10° NW 23:08:00 53° NNW 23:08:00 53° NNW
Cosmos 2278 Rocket 2.4 23:03:49 10° WNW 23:09:07 62° N 23:09:07 62° N
Cosmos 44 Rocket 4.3 23:04:48 10° WNW 23:09:33 41° SW 23:09:38 41° SSW
Cosmos 1697 Rocket 4.1 23:09:03 10° SSW 23:11:36 27° SSW 23:11:36 27° SSW
Terra 3.4 23:17:26 27° NNW 23:17:26 27° NNW 23:19:35 10° NNW
CZ-4B R/B 3.4 23:16:00 66° N 23:16:00 66° N 23:20:54 10° NNW
Cosmos 381 Rocket 4.4 23:10:53 10° NW 23:17:22 90° SW 23:17:31 86° SE
Cosmos 1140 Rocket 4.5 23:12:55 10° NW 23:16:43 38° NNW 23:16:43 38° NNW
CZ-4B DEB 4.3 23:22:03 72° WNW 23:22:03 72° WNW 23:27:12 10° NNW
Cosmos 1844 4.2 23:21:11 10° NW 23:26:38 52° SW 23:26:49 52° SW
ADEOS 4.2 23:29:01 51° NNW 23:29:01 51° NNW 23:32:55 10° NNW
Lacrosse 4 Rocket 3.5 23:27:01 10° WSW 23:28:39 23° W 23:28:39 23° W
NOSS 3-2 (A) 4.0 23:26:26 10° WSW 23:30:36 46° SSW 23:30:36 46° SSW
SL-16 R/B 3.6 23:34:57 25° NNE 23:38:05 41° NW 23:43:51 10° WSW
ERS-1 Rocket 4.3 23:41:16 33° NNW 23:41:16 33° NNW 23:44:02 10° NNW
Cosmos 2297 4.3 23:37:00 10° W 23:41:49 53° NW 23:41:49 53° NW
Cosmos 1656 4.3 23:39:39 10° WSW 23:43:52 51° WSW 23:43:52 51° WSW
SPOT 5 4.4 23:51:40 30° NW 23:51:40 30° NW 23:54:06 10° NNW
Timation 2 Rocket 4.2 23:45:17 10° WNW 23:51:08 70° NW 23:51:08 70° NW
